WetterOnline ( https://www.wetteronline.de )

Wetter aktuell Nieul-sur-Mer

Aktuelles Wetter: La Rochelle Aeroport Ile De Re (18m)

6-stündlich | Neueste Meldungen
Ortszeit Temperatur Wetter
Do, 02.07. 8:00 16.6° C bedeckt
Do, 02.07. 2:00 17.5° C bedeckt
Mi, 01.07. 20:00 20.1° C bedeckt
Mi, 01.07. 14:00 21.2° C bedeckt
Mi, 01.07. 8:00 18.6° C bedeckt
Mi, 01.07. 2:00 17.3° C -
Di, 30.06. 20:00 19.1° C bedeckt
Di, 30.06. 14:00 20.4° C bedeckt
Ortszeit Temperatur Wetter
Do, 02.07. 13:00 19.4° C bedeckt
Do, 02.07. 12:00 18.8° C bewölkt
Do, 02.07. 11:00 18.8° C bedeckt
Do, 02.07. 10:00 18.3° C bedeckt
Do, 02.07. 9:00 17.4° C bedeckt
Do, 02.07. 8:00 16.6° C bedeckt
Ortszeit Relative Feuchte Sichtweite
Do, 02.07. 8:00 80% 40 km
Do, 02.07. 2:00 71% 60 km
Mi, 01.07. 20:00 66% 40 km
Mi, 01.07. 14:00 79% 40 km
Mi, 01.07. 8:00 85% 55 km
Mi, 01.07. 2:00 86% 60 km
Di, 30.06. 20:00 78% 55 km
Di, 30.06. 14:00 74% 35 km
Ortszeit Relative Feuchte Sichtweite
Do, 02.07. 13:00 63% 60 km
Do, 02.07. 12:00 65% 60 km
Do, 02.07. 11:00 66% 60 km
Do, 02.07. 10:00 67% 40 km
Do, 02.07. 9:00 77% 50 km
Do, 02.07. 8:00 80% 40 km
Ortszeit Niederschlagsmenge Niederschlagsart
Do, 02.07. 8:00 0.1 l/m2 in 12 Std. -
Do, 02.07. 2:00 0.1 l/m2 in 6 Std. -
Mi, 01.07. 20:00 0.1 l/m2 in 12 Std. -
Mi, 01.07. 14:00 0.0 l/m2 in 6 Std. -
Mi, 01.07. 8:00 0.0 l/m2 in 12 Std. -
Mi, 01.07. 2:00 0.0 l/m2 in 6 Std. -
Di, 30.06. 20:00 0.0 l/m2 in 12 Std. -
Di, 30.06. 14:00 0.0 l/m2 in 6 Std. -
Ortszeit Niederschlagsmenge Niederschlagsart
Do, 02.07. 13:00 0.0 l/m2 in 1 Std. -
Do, 02.07. 12:00 0.0 l/m2 in 1 Std. -
Do, 02.07. 11:00 keine Meldung -
Do, 02.07. 10:00 0.0 l/m2 in 1 Std. -
Do, 02.07. 9:00 0.0 l/m2 in 1 Std. -
Do, 02.07. 8:00 keine Meldung -
Ortszeit Stärke Spitze Richtung
km/h Bft. km/h Grad Sektor
Do, 02.07. 8:00 7 2 26 350° N
Do, 02.07. 2:00 24 4 35 280° W
Mi, 01.07. 20:00 22 4 39 260° W
Mi, 01.07. 14:00 24 4 35 240° SW
Mi, 01.07. 8:00 13 3 22 200° S
Mi, 01.07. 2:00 6 1 13 240° SW
Di, 30.06. 20:00 15 3 24 240° SW
Di, 30.06. 14:00 22 4 35 220° SW
Ortszeit Stärke Spitze Richtung
km/h Bft. km/h Grad Sektor
Do, 02.07. 13:00 20 4 31 300° NW
Do, 02.07. 12:00 19 3 26 300° NW
Do, 02.07. 11:00 19 3 24 300° NW
Do, 02.07. 10:00 17 3 24 280° W
Do, 02.07. 9:00 7 2 17 330° NW
Do, 02.07. 8:00 7 2 26 350° N
Ortszeit Untergrenze Bedeckung Gattung
total tief tief mittel hoch
Do, 02.07. 8:00 - 8/8 - - - -
Do, 02.07. 2:00 - 8/8 - - - -
Mi, 01.07. 20:00 - 8/8 - - - -
Mi, 01.07. 14:00 - 8/8 - - - -
Mi, 01.07. 8:00 - 8/8 - - - -
Mi, 01.07. 2:00 - - - - - -
Di, 30.06. 20:00 - 8/8 - - - -
Di, 30.06. 14:00 - 8/8 - - - -
Ortszeit Bedeckungsgrad in Achtel und Wolkenuntergrenze
Do, 02.07. 13:00 8
Do, 02.07. 12:00 7
Do, 02.07. 11:00 8
Do, 02.07. 10:00 8
Do, 02.07. 9:00 8
Do, 02.07. 8:00 8
Ortszeit Luftdruck NN (hPa) Tendenz (hPa in 3 Std.)
Do, 02.07. 8:00 1017 + 1,0
Do, 02.07. 2:00 1016 + 0,4
Mi, 01.07. 20:00 1014 - 0,2
Mi, 01.07. 14:00 1014 + 0,5
Mi, 01.07. 8:00 1012 + 0,4
Mi, 01.07. 2:00 1013 - 0,6
Di, 30.06. 20:00 1014 - 1,3
Di, 30.06. 14:00 1016 - 0,4
Ortszeit Luftdruck NN (hPa) Tendenz (hPa in 3 Std.)
Do, 02.07. 13:00 1019 + 1,2
Do, 02.07. 12:00 1018 + 0,9
Do, 02.07. 11:00 1018 + 1,1
Do, 02.07. 10:00 1017 + 1,2
Do, 02.07. 9:00 1017 + 1,2
Do, 02.07. 8:00 1017 + 1,0
Ortszeit Schneehöhe (cm)
Do, 02.07. 8:00 0
Do, 02.07. 2:00 0
Mi, 01.07. 20:00 0
Mi, 01.07. 14:00 0
Mi, 01.07. 8:00 0
Mi, 01.07. 2:00 0
Di, 30.06. 20:00 0
Di, 30.06. 14:00 0
Ortszeit Schneehöhe (cm)
Do, 02.07. 13:00 -
Do, 02.07. 12:00 -
Do, 02.07. 11:00 0
Do, 02.07. 10:00 -
Do, 02.07. 9:00 -
Do, 02.07. 8:00 0
Link zu dieser Seite / Seite empfehlen

Das Wetter in ...